Location: ??
(34.7707°N, 135.6540°E)
Time: 21:30:33
(UTC+00:00)

Tiangong - Pass Details

Date: 05 October 2021
Orbit: 382 x 385 km, 41.5° (Epoch: 16 October)

Event Time Altitude Azimuth Distance (km) Brightness Sun altitude
Exits shadow 20:01:25 16° 303° (WNW) 1,096 2.9 -12.0°
Maximum altitude 20:03:46 62° 22° (NNE) 434 1.4 -11.5°
Drops below altitude 10° 20:06:53 10° 104° (ESE) 1,392 5.3 -10.8°
Sets 20:08:58 0° 108° (ESE) 2,242 6.5 -10.4°
